Regional Weather Roundup
Issued by NWS Newport/Morehead, NC

Current Version | Previous Version | Graphics & Text | Print | Product List | Glossary Off
Versions: 1 2 3 4 5 6 7 8 9 10 11 12 13 14 15 16 17 18 19 20 21 22 23 24 25 26 27 28 29 30 31 32 33 34 35 36 37 38 39 40 41 42 43 44 45 46 47 48 49 50

319
ASUS42 KMHX 290825
RWRMHX
WEATHER ROUNDUP FOR EASTERN NORTH CAROLINA
NATIONAL WEATHER SERVICE NEWPORT/MOREHEAD CITY NC
400 AM EDT THU JUN 29 2017

NOTE: "FAIR" INDICATES FEW OR NO CLOUDS BELOW 12,000 FEET
WITH NO SIGNIFICANT WEATHER AND/OR OBSTRUCTIONS TO VISIBILITY

NCZ015>017-031-032-045>047-102-103-290900-
NORTH COAST

CITY           SKY/WX    TMP DP  RH WIND       PRES   REMARKS
EDENTON        PTCLDY    66  62  87 CALM      30.20S
ELIZABETH CITY PTCLDY    65  64  97 CALM      30.19S
KITTY HAWK     SUNNY     68  62  80 CALM      30.18S
MANTEO         PTCLDY    63  61  95 CALM      30.20S

$$

NCZ045>047-081-094-103-104-290900-
CENTRAL COAST

CITY           SKY/WX    TMP DP  RH WIND       PRES   REMARKS
FRISCO         NOT AVBL

$$

NCZ095-097-098-100-101-290900-
SOUTHERN COAST

CITY           SKY/WX    TMP DP  RH WIND       PRES   REMARKS
BEAUFORT       PTCLDY    69  66  90 CALM      30.18S
CEDAR ISLAND   NOT AVBL
JACKSONVILLE   CLEAR     63  62  97 CALM      30.18S
PINEY ISLAND   SUNNY    N/A N/A N/A CALM      30.17F
WILMINGTON     CLEAR     63  61  93 CALM      30.18S


$$

NCZ011>013-027>030-043-044-078>080-089-090>093-098-290900-
COASTAL PLAIN

CITY           SKY/WX    TMP DP  RH WIND       PRES   REMARKS
AHOSKIE          N/A     59  58  98 CALM      30.19F FOG
CLINTON        PTCLDY    61  61  99 CALM      30.19S
ELIZABETHTOWN  NOT AVBL
GOLDSBORO      PTCLDY    62  62 100 E3        30.17S
GREENVILLE     PTCLDY    61  61 100 CALM      30.20S
HAVELOCK       CLEAR     62  59  90 SW3       30.19S
KENANSVILLE    CLEAR     57  57 100 CALM      30.19S
KINSTON        CLEAR     59  58  97 CALM      30.20R
NEW BERN       CLEAR     62  62 100 CALM      30.19F
RICHLANDS      CLEAR     59  58  96 CALM      30.19F
ROCKY MOUNT    PTCLDY    60  60 100 CALM      30.19S
WASHINGTON       N/A    N/A N/A N/A CALM      30.19S
WHITEVILLE     CLEAR     61  58  90 CALM      30.17S

$$

AMZ130-135-150-152-154-156-158-170-250-252-270-ANZ085-086-088-633-658-670-290900-
MARINE OBSERVATIONS

STATION/POSITION TIME  TEMP    WIND        PRES    WAVE   SWELL
                       AIR SEA DIR/SP/G            HT/PER HT/PER
                 (UTC) (F)     (DEG/KT/KT) (MB)    (FT/S) (FT/S)
CHESAPEAKE LIGHT NOT AVBL
64 E VA BEACH    0750   72 73  180/  4/  4 1023.1    1/ 7   2/ 7
DUCK             0800   72 73  150/  4/  5 1022.0
2 E DUCK         NOT AVBL
OREGON INLET     0800   71 77  140/  2/  3 1022.3
13E OREGON INLT  0748      76                N/A     2/ 6   2/ 6
HATTERAS CG      0800   73 78   80/  4/  6 1021.7
DIAMOND BUOY     0750   79 83  140/  6/ 10 1021.8    2/ 7   2/ 7
CAPE LOOKOUT     0800   75      20/  8/  9 1021.4
BEAUFORT LAB     0800   71 78   40/  4/  5 1021.2
30 SE NEW RVR IN 0808   78 80   40/  6/  8 1021.7
30 SE NEW RVR IN 0813      80                N/A     2/ 8
27 SE WRIGHTSVLE 0808   79 80   70/  8/ 10 1021.3
5 SE WRIGHTSVLE  0808   78 79   30/  2/  4 1021.4
225 S CAPE HAT   0750   79 80   80/ 10/ 12 1019.9    3/ 5   3/ 5
41 SE CHARLESTON 0810   80 81  110/  8/ 10 1019.9

$$




USA.gov is the U.S. government's official web portal to all federal, state and local government web resources and services.